Time,TemperatureF,DewpointF,PressureIn,WindDirection,WindDirectionDegrees,WindSpeedMPH,WindSpeedGustMPH,Humidity,HourlyPrecipIn,Conditions,Clouds,dailyrainin,SolarRadiationWatts/m^2,SoftwareType,DateUTC
2013-08-07 00:02:00,63.5,59.2,29.95,NE,42,4.0,4.0,86,0.00,CLR,,0.00,0.0,WeatherDisplay:10.37,2013-08-06 22:02:00,
2013-08-07 00:07:00,63.5,59.2,29.95,NE,42,2.3,2.3,86,0.00,CLR,,0.00,0.0,WeatherDisplay:10.37,2013-08-06 22:07:00,
2013-08-07 00:13:00,63.4,59.1,29.95,NE,42,3.5,3.5,86,0.00,CLR,,0.00,0.0,WeatherDisplay:10.37,2013-08-06 22:13:00,
2013-08-07 00:18:00,63.3,59.0,29.95,NE,42,4.6,4.6,86,0.00,CLR,,0.00,0.0,WeatherDisplay:10.37,2013-08-06 22:18:00,
2013-08-07 00:23:00,63.1,58.8,29.95,NE,42,4.6,4.6,86,0.00,CLR,,0.00,0.0,WeatherDisplay:10.37,2013-08-06 22:23:00,
2013-08-07 00:28:00,63.0,58.4,29.94,NE,42,3.5,3.5,85,0.00,CLR,,0.00,0.0,WeatherDisplay:10.37,2013-08-06 22:28:00,
2013-08-07 00:33:00,62.9,58.0,29.95,NE,42,4.6,4.6,84,0.00,CLR,,0.00,0.0,WeatherDisplay:10.37,2013-08-06 22:33:00,
2013-08-07 00:39:00,62.8,57.9,29.95,NE,42,2.0,2.0,84,0.00,CLR,,0.00,0.0,WeatherDisplay:10.37,2013-08-06 22:39:00,
2013-08-07 00:44:00,62.8,57.9,29.94,NE,42,4.6,4.6,84,0.00,CLR,,0.00,0.0,WeatherDisplay:10.37,2013-08-06 22:44:00,
2013-08-07 00:49:00,62.7,57.8,29.95,NE,42,5.8,5.8,84,0.00,CLR,,0.00,0.0,WeatherDisplay:10.37,2013-08-06 22:49:00,
2013-08-07 00:54:00,62.6,58.0,29.95,NE,42,2.3,2.3,85,0.00,CLR,,0.00,0.0,WeatherDisplay:10.37,2013-08-06 22:54:00,
2013-08-07 00:59:00,62.6,58.0,29.94,NE,42,3.5,3.5,85,0.00,CLR,,0.00,0.0,WeatherDisplay:10.37,2013-08-06 22:59:00,
2013-08-07 01:05:00,62.5,57.9,29.95,NE,42,4.6,4.6,85,0.00,OVC,,0.00,0.0,WeatherDisplay:10.37,2013-08-06 23:05:00,
2013-08-07 01:10:00,62.5,57.9,29.94,NE,42,4.6,4.6,85,0.00,OVC,,0.00,0.0,WeatherDisplay:10.37,2013-08-06 23:10:00,
2013-08-07 01:15:00,62.4,58.2,29.94,NE,42,4.0,4.0,86,0.00,OVC,,0.00,0.0,WeatherDisplay:10.37,2013-08-06 23:15:00,
2013-08-07 01:20:00,62.5,58.3,29.94,NE,42,3.5,3.5,86,0.00,OVC,,0.00,0.0,WeatherDisplay:10.37,2013-08-06 23:20:00,
2013-08-07 01:25:00,62.4,57.8,29.94,NE,42,4.0,4.0,85,0.00,OVC,,0.00,0.0,WeatherDisplay:10.37,2013-08-06 23:25:00,
2013-08-07 01:30:00,62.4,58.2,29.94,NE,42,3.5,3.5,86,0.00,OVC,,0.00,0.0,WeatherDisplay:10.37,2013-08-06 23:30:00,
2013-08-07 01:35:00,62.4,58.2,29.94,NE,42,4.0,4.0,86,0.00,OVC,,0.00,0.0,WeatherDisplay:10.37,2013-08-06 23:35:00,
2013-08-07 01:40:00,62.4,58.2,29.94,NE,42,2.3,2.3,86,0.00,OVC,,0.00,0.0,WeatherDisplay:10.37,2013-08-06 23:40:00,
2013-08-07 01:46:00,62.3,58.1,29.94,NE,42,1.2,1.2,86,0.00,OVC,,0.00,0.0,WeatherDisplay:10.37,2013-08-06 23:46:00,
2013-08-07 01:51:00,62.3,58.1,29.94,NE,42,1.2,0.0,86,0.00,OVC,,0.00,0.0,WeatherDisplay:10.37,2013-08-06 23:51:00,
2013-08-07 01:56:00,62.2,58.0,29.93,NE,42,1.2,1.2,86,0.00,OVC,,0.00,0.0,WeatherDisplay:10.37,2013-08-06 23:56:00,
2013-08-07 02:01:00,62.1,57.9,29.93,NE,42,1.2,1.2,86,0.00,BKN,,0.00,0.0,WeatherDisplay:10.37,2013-08-07 00:01:00,
2013-08-07 02:06:00,61.9,57.7,29.93,NE,42,1.2,1.2,86,0.00,BKN,,0.00,0.0,WeatherDisplay:10.37,2013-08-07 00:06:00,
2013-08-07 02:11:00,61.8,57.6,29.93,NE,42,2.3,2.3,86,0.00,BKN,,0.00,0.0,WeatherDisplay:10.37,2013-08-07 00:11:00,
2013-08-07 02:17:00,61.7,57.5,29.92,NE,42,2.3,2.3,86,0.00,BKN,,0.00,0.0,WeatherDisplay:10.37,2013-08-07 00:17:00,
2013-08-07 02:22:00,61.6,57.7,29.92,NE,42,2.3,2.3,87,0.00,BKN,,0.00,0.0,WeatherDisplay:10.37,2013-08-07 00:22:00,
2013-08-07 02:27:00,61.5,57.6,29.92,NE,42,4.6,4.6,87,0.00,BKN,,0.00,0.0,WeatherDisplay:10.37,2013-08-07 00:27:00,
2013-08-07 02:32:00,61.4,57.5,29.91,NE,42,4.6,4.6,87,0.00,BKN,,0.00,0.0,WeatherDisplay:10.37,2013-08-07 00:32:00,
2013-08-07 02:37:00,61.4,57.8,29.91,NE,42,6.9,6.9,88,0.00,BKN,,0.00,0.0,WeatherDisplay:10.37,2013-08-07 00:37:00,
2013-08-07 02:42:00,61.4,57.8,29.91,NE,48,6.9,6.9,88,0.00,BKN,,0.00,0.0,WeatherDisplay:10.37,2013-08-07 00:42:00,
2013-08-07 02:47:00,61.5,57.9,29.91,NE,48,3.5,3.5,88,0.00,BKN,,0.00,0.0,WeatherDisplay:10.37,2013-08-07 00:47:00,
2013-08-07 02:53:00,61.5,57.9,29.91,NE,49,3.5,3.5,88,0.00,BKN,,0.00,0.0,WeatherDisplay:10.37,2013-08-07 00:53:00,
2013-08-07 02:58:00,61.5,58.2,29.91,NE,49,3.5,3.5,89,0.00,BKN,,0.00,0.0,WeatherDisplay:10.37,2013-08-07 00:58:00,
2013-08-07 03:03:00,61.5,58.2,29.92,NE,49,3.5,3.5,89,0.00,CLR,,0.00,0.0,WeatherDisplay:10.37,2013-08-07 01:03:00,
2013-08-07 03:08:00,61.5,58.2,29.92,NE,49,3.5,0.0,89,0.00,CLR,,0.00,0.0,WeatherDisplay:10.37,2013-08-07 01:08:00,
2013-08-07 03:13:00,61.4,58.1,29.92,NE,49,4.6,4.6,89,0.00,CLR,,0.00,0.0,WeatherDisplay:10.37,2013-08-07 01:13:00,
2013-08-07 03:19:00,61.4,58.1,29.91,NE,49,3.5,3.5,89,0.00,CLR,,0.00,0.0,WeatherDisplay:10.37,2013-08-07 01:19:00,
2013-08-07 03:24:00,61.4,58.1,29.91,NE,55,4.6,4.6,89,0.00,CLR,,0.00,0.0,WeatherDisplay:10.37,2013-08-07 01:24:00,
2013-08-07 03:29:00,61.3,58.0,29.91,NE,55,3.5,3.5,89,0.00,CLR,,0.00,0.0,WeatherDisplay:10.37,2013-08-07 01:29:00,
2013-08-07 03:34:00,61.3,58.0,29.92,ENE,57,5.8,5.8,89,0.00,CLR,,0.00,0.0,WeatherDisplay:10.37,2013-08-07 01:34:00,
2013-08-07 03:39:00,61.3,58.3,29.92,ENE,57,4.6,4.6,90,0.00,CLR,,0.00,0.0,WeatherDisplay:10.37,2013-08-07 01:39:00,
2013-08-07 03:44:00,61.3,58.3,29.91,ENE,59,3.5,3.5,90,0.00,CLR,,0.00,0.0,WeatherDisplay:10.37,2013-08-07 01:44:00,
2013-08-07 03:49:00,61.2,58.2,29.91,ENE,59,2.3,0.0,90,0.00,CLR,,0.00,0.0,WeatherDisplay:10.37,2013-08-07 01:49:00,
2013-08-07 03:54:00,61.2,58.2,29.91,ENE,59,4.6,4.6,90,0.00,CLR,,0.00,0.0,WeatherDisplay:10.37,2013-08-07 01:54:00,
2013-08-07 03:59:00,61.1,58.1,29.91,ENE,63,3.5,4.0,90,0.00,CLR,,0.00,0.0,WeatherDisplay:10.37,2013-08-07 01:59:00,
2013-08-07 04:04:00,61.0,58.0,29.91,ENE,63,2.3,0.0,90,0.00,CLR,,0.00,0.0,WeatherDisplay:10.37,2013-08-07 02:04:00,
2013-08-07 04:09:00,61.0,58.0,29.90,ENE,63,3.5,3.5,90,0.00,CLR,,0.00,0.0,WeatherDisplay:10.37,2013-08-07 02:09:00,
2013-08-07 04:15:00,60.9,57.9,29.90,ENE,63,3.5,3.5,90,0.00,CLR,,0.00,0.0,WeatherDisplay:10.37,2013-08-07 02:15:00,
2013-08-07 04:20:00,60.8,57.8,29.91,ENE,63,3.5,3.5,90,0.00,CLR,,0.00,0.0,WeatherDisplay:10.37,2013-08-07 02:20:00,
2013-08-07 04:25:00,60.8,57.8,29.91,ENE,63,3.5,3.5,90,0.00,CLR,,0.00,0.0,WeatherDisplay:10.37,2013-08-07 02:25:00,
2013-08-07 04:30:00,60.7,57.7,29.91,ENE,63,4.0,4.0,90,0.00,CLR,,0.00,0.0,WeatherDisplay:10.37,2013-08-07 02:30:00,
2013-08-07 04:35:00,60.6,57.7,29.91,ENE,63,3.5,3.5,90,0.00,CLR,,0.00,0.0,WeatherDisplay:10.37,2013-08-07 02:35:00,
2013-08-07 04:40:00,60.5,57.6,29.91,ENE,63,5.8,5.8,90,0.00,CLR,,0.00,0.0,WeatherDisplay:10.37,2013-08-07 02:40:00,
2013-08-07 04:46:00,60.4,57.5,29.91,ENE,63,4.0,4.0,90,0.00,CLR,,0.00,0.0,WeatherDisplay:10.37,2013-08-07 02:46:00,
2013-08-07 04:51:00,60.4,57.8,29.91,East,79,6.9,6.9,91,0.00,CLR,,0.00,0.0,WeatherDisplay:10.37,2013-08-07 02:51:00,
2013-08-07 04:56:00,60.3,57.7,29.92,East,79,3.5,3.5,91,0.00,CLR,,0.00,0.0,WeatherDisplay:10.37,2013-08-07 02:56:00,
2013-08-07 05:01:00,60.3,57.7,29.91,East,79,3.5,3.5,91,0.00,CLR,,0.00,0.0,WeatherDisplay:10.37,2013-08-07 03:01:00,
2013-08-07 05:06:00,60.2,57.6,29.92,East,79,4.6,4.6,91,0.00,CLR,,0.00,0.0,WeatherDisplay:10.37,2013-08-07 03:06:00,
2013-08-07 05:11:00,60.1,57.5,29.92,East,79,0.0,0.2,91,0.00,CLR,,0.00,0.0,WeatherDisplay:10.37,2013-08-07 03:11:00,
2013-08-07 05:16:00,60.1,57.5,29.92,East,79,4.6,4.6,91,0.00,CLR,,0.00,0.0,WeatherDisplay:10.37,2013-08-07 03:16:00,
2013-08-07 05:22:00,60.0,57.4,29.91,East,79,4.0,4.0,91,0.00,CLR,,0.00,0.0,WeatherDisplay:10.37,2013-08-07 03:22:00,
2013-08-07 05:27:00,60.0,57.4,29.91,East,79,3.5,3.5,91,0.00,CLR,,0.00,0.0,WeatherDisplay:10.37,2013-08-07 03:27:00,
2013-08-07 05:32:00,59.9,57.3,29.91,East,79,2.0,2.0,91,0.00,CLR,,0.00,0.0,WeatherDisplay:10.37,2013-08-07 03:32:00,
2013-08-07 05:37:00,59.9,57.3,29.90,East,79,4.6,4.6,91,0.00,CLR,,0.00,0.0,WeatherDisplay:10.37,2013-08-07 03:37:00,
2013-08-07 05:42:00,59.8,57.2,29.90,East,79,4.6,4.6,91,0.00,CLR,,0.00,0.0,WeatherDisplay:10.37,2013-08-07 03:42:00,
2013-08-07 05:47:00,59.7,57.1,29.90,East,79,3.5,3.5,91,0.00,CLR,,0.00,0.0,WeatherDisplay:10.37,2013-08-07 03:47:00,
2013-08-07 05:52:00,59.7,57.1,29.89,East,79,4.6,4.6,91,0.00,CLR,,0.00,0.0,WeatherDisplay:10.37,2013-08-07 03:52:00,
2013-08-07 05:57:00,59.7,57.1,29.89,East,79,1.2,0.0,91,0.00,CLR,,0.00,0.0,WeatherDisplay:10.37,2013-08-07 03:57:00,
2013-08-07 06:01:00,59.7,57.1,29.89,East,79,3.5,3.5,91,0.00,CLR,,0.00,0.0,WeatherDisplay:10.37,2013-08-07 04:01:00,
2013-08-07 06:03:00,59.7,57.1,29.89,East,79,3.5,3.5,91,0.00,CLR,,0.00,0.0,WeatherDisplay:10.37,2013-08-07 04:03:00,
2013-08-07 06:06:00,59.7,57.1,29.89,East,79,3.5,3.5,91,0.00,CLR,,0.00,0.0,WeatherDisplay:10.37,2013-08-07 04:06:00,
2013-08-07 06:11:00,59.6,57.0,29.88,East,79,3.5,3.5,91,0.00,CLR,,0.00,0.0,WeatherDisplay:10.37,2013-08-07 04:11:00,
2013-08-07 06:16:00,59.6,57.0,29.88,East,79,4.6,4.6,91,0.00,CLR,,0.00,0.0,WeatherDisplay:10.37,2013-08-07 04:16:00,
2013-08-07 06:21:00,59.6,57.0,29.88,ENE,78,5.8,5.8,91,0.00,CLR,,0.00,5.0,WeatherDisplay:10.37,2013-08-07 04:21:00,
2013-08-07 06:27:00,59.6,57.0,29.88,ENE,78,3.5,3.5,91,0.00,CLR,,0.00,7.0,WeatherDisplay:10.37,2013-08-07 04:27:00,
2013-08-07 06:32:00,59.6,57.0,29.88,ENE,78,5.8,5.8,91,0.00,CLR,,0.00,11.0,WeatherDisplay:10.37,2013-08-07 04:32:00,
2013-08-07 06:37:00,59.7,57.1,29.88,ENE,78,5.0,5.0,91,0.00,CLR,,0.00,9.0,WeatherDisplay:10.37,2013-08-07 04:37:00,
2013-08-07 06:42:00,59.7,57.1,29.88,ENE,78,5.0,5.0,91,0.00,CLR,,0.00,9.0,WeatherDisplay:10.37,2013-08-07 04:42:00,
2013-08-07 06:47:00,59.7,57.1,29.88,ENE,78,5.8,5.8,91,0.00,CLR,,0.00,11.0,WeatherDisplay:10.37,2013-08-07 04:47:00,
2013-08-07 06:52:00,59.7,57.1,29.88,ENE,78,3.5,3.5,91,0.00,CLR,,0.00,12.0,WeatherDisplay:10.37,2013-08-07 04:52:00,
2013-08-07 06:57:00,59.8,57.2,29.88,ENE,76,10.4,10.4,91,0.00,CLR,,0.00,14.0,WeatherDisplay:10.37,2013-08-07 04:57:00,
2013-08-07 07:03:00,59.8,57.2,29.88,ENE,74,10.4,10.4,91,0.00,CLR,,0.00,16.0,WeatherDisplay:10.37,2013-08-07 05:03:00,
2013-08-07 07:08:00,59.9,57.3,29.88,ENE,74,5.0,5.0,91,0.00,CLR,,0.00,18.0,WeatherDisplay:10.37,2013-08-07 05:08:00,
2013-08-07 07:13:00,60.0,57.4,29.88,ENE,74,5.0,5.0,91,0.00,CLR,,0.00,21.0,WeatherDisplay:10.37,2013-08-07 05:13:00,
2013-08-07 07:18:00,60.0,57.4,29.88,ENE,73,6.9,6.9,91,0.00,CLR,,0.00,26.0,WeatherDisplay:10.37,2013-08-07 05:18:00,
2013-08-07 07:24:00,60.1,57.5,29.89,ENE,73,6.0,6.0,91,0.00,CLR,,0.00,30.0,WeatherDisplay:10.37,2013-08-07 05:24:00,
2013-08-07 07:29:00,60.2,57.6,29.89,ENE,73,6.9,6.9,91,0.00,CLR,,0.00,33.0,WeatherDisplay:10.37,2013-08-07 05:29:00,
2013-08-07 07:34:00,60.3,57.7,29.89,ENE,73,4.6,4.6,91,0.00,CLR,,0.00,37.0,WeatherDisplay:10.37,2013-08-07 05:34:00,
2013-08-07 07:40:00,60.4,57.8,29.89,ENE,74,6.9,6.9,91,0.00,CLR,,0.00,44.0,WeatherDisplay:10.37,2013-08-07 05:40:00,
2013-08-07 07:45:00,60.5,57.9,29.89,East,80,8.1,8.1,91,0.00,CLR,,0.00,47.0,WeatherDisplay:10.37,2013-08-07 05:45:00,
2013-08-07 07:50:00,60.6,58.0,29.88,East,80,8.1,8.1,91,0.00,CLR,,0.00,46.0,WeatherDisplay:10.37,2013-08-07 05:50:00,
2013-08-07 07:55:00,60.7,58.1,29.88,East,80,4.0,4.0,91,0.00,CLR,,0.00,47.0,WeatherDisplay:10.37,2013-08-07 05:55:00,
2013-08-07 08:00:00,60.8,58.2,29.88,East,80,5.8,5.8,91,0.00,CLR,,0.00,54.0,WeatherDisplay:10.37,2013-08-07 06:00:00,
2013-08-07 08:05:00,60.9,58.3,29.88,East,80,8.1,8.1,91,0.00,OVC,,0.00,54.0,WeatherDisplay:10.37,2013-08-07 06:05:00,
2013-08-07 08:10:00,61.0,58.4,29.89,East,80,5.8,5.8,91,0.00,OVC,,0.00,54.0,WeatherDisplay:10.37,2013-08-07 06:10:00,
2013-08-07 08:16:00,61.1,58.1,29.89,East,82,4.6,4.6,90,0.00,OVC,,0.00,53.0,WeatherDisplay:10.37,2013-08-07 06:16:00,
2013-08-07 08:21:00,61.2,58.2,29.89,East,81,3.5,3.5,90,0.00,OVC,,0.00,56.0,WeatherDisplay:10.37,2013-08-07 06:21:00,
2013-08-07 08:26:00,61.3,58.3,29.89,East,80,5.8,5.8,90,0.00,OVC,,0.00,65.0,WeatherDisplay:10.37,2013-08-07 06:26:00,
2013-08-07 08:31:00,61.4,58.4,29.89,East,80,4.6,4.6,90,0.00,OVC,,0.00,79.0,WeatherDisplay:10.37,2013-08-07 06:31:00,
2013-08-07 08:36:00,61.5,58.5,29.88,East,80,3.5,3.5,90,0.00,OVC,,0.00,84.0,WeatherDisplay:10.37,2013-08-07 06:36:00,
2013-08-07 08:41:00,61.7,58.7,29.88,East,81,4.0,4.0,90,0.00,OVC,,0.00,90.0,WeatherDisplay:10.37,2013-08-07 06:41:00,
2013-08-07 08:47:00,61.9,58.9,29.88,East,81,6.9,6.9,90,0.00,OVC,,0.00,95.0,WeatherDisplay:10.37,2013-08-07 06:47:00,
2013-08-07 08:52:00,62.1,59.1,29.88,East,80,7.0,7.0,90,0.00,OVC,,0.00,100.0,WeatherDisplay:10.37,2013-08-07 06:52:00,
2013-08-07 08:57:00,62.3,59.3,29.88,ENE,63,6.0,6.0,90,0.00,OVC,,0.00,114.0,WeatherDisplay:10.37,2013-08-07 06:57:00,
2013-08-07 09:02:00,62.5,59.5,29.87,ENE,63,5.8,5.8,90,0.00,OVC,,0.00,135.0,WeatherDisplay:10.37,2013-08-07 07:02:00,
2013-08-07 09:07:00,62.7,59.7,29.87,ENE,63,8.1,8.1,90,0.00,OVC,,0.00,139.0,WeatherDisplay:10.37,2013-08-07 07:07:00,
2013-08-07 09:12:00,63.0,59.7,29.86,ENE,63,7.0,7.0,89,0.00,OVC,,0.00,137.0,WeatherDisplay:10.37,2013-08-07 07:12:00,
2013-08-07 09:18:00,63.3,60.0,29.86,ENE,62,8.1,8.1,89,0.00,OVC,,0.00,137.0,WeatherDisplay:10.37,2013-08-07 07:18:00,
2013-08-07 09:23:00,63.6,60.0,29.86,ENE,62,3.5,3.5,88,0.00,OVC,,0.00,135.0,WeatherDisplay:10.37,2013-08-07 07:23:00,
2013-08-07 09:28:00,63.9,60.3,29.86,ENE,62,10.4,10.4,88,0.00,OVC,,0.00,134.0,WeatherDisplay:10.37,2013-08-07 07:28:00,
2013-08-07 09:33:00,64.1,60.5,29.86,NE,55,11.5,11.5,88,0.00,OVC,,0.00,121.0,WeatherDisplay:10.37,2013-08-07 07:33:00,
2013-08-07 09:38:00,64.2,60.2,29.86,NE,55,6.9,6.9,87,0.00,OVC,,0.00,118.0,WeatherDisplay:10.37,2013-08-07 07:38:00,
2013-08-07 09:44:00,64.4,60.4,29.86,NE,55,6.9,6.9,87,0.00,OVC,,0.00,121.0,WeatherDisplay:10.37,2013-08-07 07:44:00,
2013-08-07 09:49:00,64.6,60.6,29.86,ENE,57,5.8,5.8,87,0.00,OVC,,0.00,127.0,WeatherDisplay:10.37,2013-08-07 07:49:00,
2013-08-07 09:54:00,64.7,60.4,29.85,NE,56,8.1,8.1,86,0.00,OVC,,0.00,171.0,WeatherDisplay:10.37,2013-08-07 07:54:00,
2013-08-07 09:59:00,64.9,60.6,29.85,NE,56,4.6,4.6,86,0.00,OVC,,0.00,204.0,WeatherDisplay:10.37,2013-08-07 07:59:00,
2013-08-07 10:04:00,65.1,60.8,29.86,NE,56,11.5,11.5,86,0.00,-RA,,0.00,199.0,WeatherDisplay:10.37,2013-08-07 08:04:00,
2013-08-07 10:09:00,65.5,61.2,29.86,ENE,62,11.5,11.5,86,0.00,-RA,,0.00,195.0,WeatherDisplay:10.37,2013-08-07 08:09:00,
2013-08-07 10:15:00,65.7,61.4,29.86,ENE,57,10.4,10.4,86,0.00,-RA,,0.00,192.0,WeatherDisplay:10.37,2013-08-07 08:15:00,
2013-08-07 10:20:00,66.0,61.0,29.86,ENE,70,16.1,16.1,84,0.00,-RA,,0.00,179.0,WeatherDisplay:10.37,2013-08-07 08:20:00,
2013-08-07 10:25:00,66.1,61.1,29.86,NE,48,12.7,12.7,84,0.00,-RA,,0.00,178.0,WeatherDisplay:10.37,2013-08-07 08:25:00,
2013-08-07 10:30:00,66.2,60.9,29.85,NE,49,11.5,11.5,83,0.00,-RA,,0.00,216.0,WeatherDisplay:10.37,2013-08-07 08:30:00,
2013-08-07 10:35:00,66.3,61.0,29.85,ENE,59,13.8,13.8,83,0.00,-RA,,0.00,165.0,WeatherDisplay:10.37,2013-08-07 08:35:00,
2013-08-07 10:40:00,66.5,61.2,29.85,ENE,64,10.4,10.4,83,0.00,-RA,,0.00,141.0,WeatherDisplay:10.37,2013-08-07 08:40:00,
2013-08-07 10:45:00,66.6,60.9,29.85,NE,40,13.8,13.8,82,0.00,-RA,,0.00,146.0,WeatherDisplay:10.37,2013-08-07 08:45:00,
2013-08-07 10:51:00,66.7,61.0,29.84,East,87,11.5,11.5,82,0.00,-RA,,0.00,165.0,WeatherDisplay:10.37,2013-08-07 08:51:00,
2013-08-07 10:56:00,66.7,60.7,29.84,NW,315,13.8,13.8,81,0.00,-RA,,0.00,171.0,WeatherDisplay:10.37,2013-08-07 08:56:00,
2013-08-07 11:01:00,66.7,60.7,29.84,East,86,15.0,15.0,81,0.00,-RA,,0.00,172.0,WeatherDisplay:10.37,2013-08-07 09:01:00,
2013-08-07 11:06:00,66.8,60.8,29.84,NE,36,13.8,13.8,81,0.00,-RA,,0.00,186.0,WeatherDisplay:10.37,2013-08-07 09:06:00,
2013-08-07 11:11:00,66.9,60.9,29.84,NE,47,11.5,11.5,81,0.00,-RA,,0.00,183.0,WeatherDisplay:10.37,2013-08-07 09:11:00,
2013-08-07 11:16:00,67.1,61.1,29.84,ENE,68,10.4,10.4,81,0.00,-RA,,0.00,183.0,WeatherDisplay:10.37,2013-08-07 09:16:00,
2013-08-07 11:22:00,67.2,60.8,29.84,NE,54,12.7,12.7,80,0.00,-RA,,0.00,172.0,WeatherDisplay:10.37,2013-08-07 09:22:00,
2013-08-07 11:27:00,67.2,60.8,29.83,NE,55,10.4,10.4,80,0.00,-RA,,0.00,179.0,WeatherDisplay:10.37,2013-08-07 09:27:00,
2013-08-07 11:32:00,67.2,60.8,29.84,NNE,31,10.4,10.4,80,0.00,-RA,,0.00,181.0,WeatherDisplay:10.37,2013-08-07 09:32:00,
2013-08-07 11:37:00,67.3,60.9,29.84,ENE,62,12.7,12.7,80,0.00,-RA,,0.00,148.0,WeatherDisplay:10.37,2013-08-07 09:37:00,
2013-08-07 11:42:00,67.2,60.5,29.84,ENE,63,12.7,12.7,79,0.00,-RA,,0.00,156.0,WeatherDisplay:10.37,2013-08-07 09:42:00,
2013-08-07 11:47:00,67.2,61.2,29.84,NE,45,11.5,11.5,81,0.00,-RA,,0.00,190.0,WeatherDisplay:10.37,2013-08-07 09:47:00,
2013-08-07 11:53:00,67.2,60.5,29.83,ENE,77,11.5,11.5,79,0.00,-RA,,0.00,195.0,WeatherDisplay:10.37,2013-08-07 09:53:00,
2013-08-07 11:58:00,67.1,60.4,29.83,ENE,75,17.3,17.3,79,0.00,-RA,,0.00,190.0,WeatherDisplay:10.37,2013-08-07 09:58:00,
2013-08-07 12:03:00,67.0,59.9,29.83,ENE,70,12.7,12.7,78,0.00,-RA,,0.00,171.0,WeatherDisplay:10.37,2013-08-07 10:03:00,
2013-08-07 12:08:00,66.9,59.8,29.83,ENE,62,15.0,15.0,78,0.00,-RA,,0.00,151.0,WeatherDisplay:10.37,2013-08-07 10:08:00,
2013-08-07 12:13:00,66.7,59.3,29.83,East,92,13.8,13.8,77,0.00,-RA,,0.00,158.0,WeatherDisplay:10.37,2013-08-07 10:13:00,
2013-08-07 12:18:00,66.6,59.5,29.83,NE,52,17.3,17.3,78,0.00,-RA,,0.00,158.0,WeatherDisplay:10.37,2013-08-07 10:18:00,
2013-08-07 12:23:00,66.5,59.4,29.83,East,86,9.2,9.2,78,0.00,-RA,,0.00,141.0,WeatherDisplay:10.37,2013-08-07 10:23:00,
2013-08-07 12:28:00,66.5,59.1,29.83,ENE,72,12.7,12.7,77,0.00,-RA,,0.00,176.0,WeatherDisplay:10.37,2013-08-07 10:28:00,
2013-08-07 12:33:00,66.4,58.6,29.83,NE,56,5.0,5.0,76,0.00,-RA,,0.00,172.0,WeatherDisplay:10.37,2013-08-07 10:33:00,
2013-08-07 12:39:00,66.4,58.2,29.83,ESE,115,11.5,11.5,75,0.00,-RA,,0.00,174.0,WeatherDisplay:10.37,2013-08-07 10:39:00,
2013-08-07 12:44:00,66.4,58.6,29.84,NE,42,9.2,9.2,76,0.00,-RA,,0.00,167.0,WeatherDisplay:10.37,2013-08-07 10:44:00,
2013-08-07 12:49:00,66.5,58.7,29.84,ENE,59,12.7,12.7,76,0.00,-RA,,0.00,158.0,WeatherDisplay:10.37,2013-08-07 10:49:00,
2013-08-07 12:54:00,66.6,59.2,29.83,NE,45,9.2,9.2,77,0.00,-RA,,0.00,160.0,WeatherDisplay:10.37,2013-08-07 10:54:00,
2013-08-07 13:00:00,66.8,60.1,29.84,ENE,61,8.1,8.1,79,0.00,-RA,,0.00,142.0,WeatherDisplay:10.37,2013-08-07 11:00:00,
2013-08-07 13:05:00,66.9,60.2,29.84,ENE,75,4.6,4.6,79,0.00,BKN,,0.00,139.0,WeatherDisplay:10.37,2013-08-07 11:05:00,
2013-08-07 13:10:00,66.8,60.4,29.84,ENE,75,6.9,6.9,80,0.00,BKN,,0.00,107.0,WeatherDisplay:10.37,2013-08-07 11:10:00,
2013-08-07 13:15:00,66.5,60.1,29.85,ENE,72,11.5,11.5,80,0.00,BKN,,0.01,105.0,WeatherDisplay:10.37,2013-08-07 11:15:00,
2013-08-07 13:20:00,66.3,61.0,29.85,ENE,65,6.9,6.9,83,0.01,RA,,0.01,111.0,WeatherDisplay:10.37,2013-08-07 11:20:00,
2013-08-07 13:26:00,66.0,61.0,29.85,ENE,66,6.9,6.9,84,0.01,BKN,,0.01,83.0,WeatherDisplay:10.37,2013-08-07 11:26:00,
2013-08-07 13:31:00,65.4,60.4,29.85,ENE,62,11.5,11.5,84,0.02,RA,,0.02,69.0,WeatherDisplay:10.37,2013-08-07 11:31:00,
2013-08-07 13:36:00,64.9,60.6,29.85,ENE,76,8.1,8.1,86,0.02,RA,,0.02,60.0,WeatherDisplay:10.37,2013-08-07 11:36:00,
2013-08-07 13:41:00,64.4,60.1,29.85,ENE,59,6.9,6.9,86,0.02,BKN,,0.02,70.0,WeatherDisplay:10.37,2013-08-07 11:41:00,
2013-08-07 13:46:00,64.0,60.1,29.85,ENE,64,3.5,3.5,87,0.02,RA,,0.02,62.0,WeatherDisplay:10.37,2013-08-07 11:46:00,
2013-08-07 13:52:00,63.6,60.0,29.85,NE,44,8.1,8.1,88,0.03,RA,,0.03,62.0,WeatherDisplay:10.37,2013-08-07 11:52:00,
2013-08-07 13:57:00,63.0,59.1,29.85,NNE,13,11.5,11.5,87,0.03,RA,,0.03,67.0,WeatherDisplay:10.37,2013-08-07 11:57:00,
2013-08-07 14:02:00,62.6,59.0,29.86,NE,34,10.4,10.4,88,0.03,BKN,,0.03,63.0,WeatherDisplay:10.37,2013-08-07 12:02:00,
2013-08-07 14:07:00,62.3,59.0,29.86,NE,35,4.6,4.6,89,0.04,RA,,0.04,58.0,WeatherDisplay:10.37,2013-08-07 12:07:00,
2013-08-07 14:12:00,61.9,58.6,29.86,NE,49,4.6,4.6,89,0.05,RA,,0.05,47.0,WeatherDisplay:10.37,2013-08-07 12:12:00,
2013-08-07 14:17:00,61.7,58.7,29.86,ENE,63,11.5,11.5,90,0.04,RA,,0.05,40.0,WeatherDisplay:10.37,2013-08-07 12:17:00,
2013-08-07 14:23:00,61.3,58.3,29.85,NE,53,12.7,12.7,90,0.05,RA,,0.06,46.0,WeatherDisplay:10.37,2013-08-07 12:23:00,
2013-08-07 14:28:00,60.9,57.9,29.85,ENE,63,11.5,11.5,90,0.06,RA,,0.06,70.0,WeatherDisplay:10.37,2013-08-07 12:28:00,
2013-08-07 14:33:00,60.6,58.0,29.85,ENE,60,6.9,6.9,91,0.05,RA,,0.06,90.0,WeatherDisplay:10.37,2013-08-07 12:33:00,
2013-08-07 14:38:00,60.5,57.9,29.85,NE,46,8.1,8.1,91,0.05,BKN,,0.06,97.0,WeatherDisplay:10.37,2013-08-07 12:38:00,
2013-08-07 14:44:00,60.4,58.1,29.85,ENE,58,4.6,4.6,92,0.05,RA,,0.07,93.0,WeatherDisplay:10.37,2013-08-07 12:44:00,
2013-08-07 14:49:00,60.3,58.0,29.85,NE,34,6.0,6.0,92,0.05,RA,,0.08,79.0,WeatherDisplay:10.37,2013-08-07 12:49:00,
2013-08-07 14:54:00,60.3,58.0,29.85,NE,41,6.0,6.0,92,0.05,RA,,0.08,90.0,WeatherDisplay:10.37,2013-08-07 12:54:00,
2013-08-07 14:59:00,60.5,58.5,29.85,NE,46,6.9,6.9,93,0.05,RA,,0.08,91.0,WeatherDisplay:10.37,2013-08-07 12:59:00,
2013-08-07 15:04:00,60.5,58.5,29.84,NE,40,5.8,5.8,93,0.05,FEW,,0.08,109.0,WeatherDisplay:10.37,2013-08-07 13:04:00,
2013-08-07 15:09:00,60.7,58.7,29.84,NE,52,3.5,3.5,93,0.04,FEW,,0.08,113.0,WeatherDisplay:10.37,2013-08-07 13:09:00,
2013-08-07 15:15:00,60.8,58.8,29.85,ENE,73,9.2,9.2,93,0.03,FEW,,0.08,113.0,WeatherDisplay:10.37,2013-08-07 13:15:00,
2013-08-07 15:20:00,60.9,58.9,29.85,NE,44,3.5,3.5,93,0.03,FEW,,0.08,97.0,WeatherDisplay:10.37,2013-08-07 13:20:00,
2013-08-07 15:25:00,60.9,58.9,29.85,ENE,61,11.5,11.5,93,0.03,RA,,0.09,76.0,WeatherDisplay:10.37,2013-08-07 13:25:00,
2013-08-07 15:30:00,60.9,58.9,29.84,NE,34,8.1,8.1,93,0.02,RA,,0.09,88.0,WeatherDisplay:10.37,2013-08-07 13:30:00,
2013-08-07 15:35:00,60.8,58.8,29.84,NE,34,10.4,10.4,93,0.03,RA,,0.09,111.0,WeatherDisplay:10.37,2013-08-07 13:35:00,
2013-08-07 15:40:00,60.8,58.8,29.85,ENE,72,10.0,10.0,93,0.02,FEW,,0.09,97.0,WeatherDisplay:10.37,2013-08-07 13:40:00,
2013-08-07 15:46:00,60.8,58.8,29.85,ENE,69,8.1,8.1,93,0.02,FEW,,0.09,86.0,WeatherDisplay:10.37,2013-08-07 13:46:00,
2013-08-07 15:51:00,60.8,58.8,29.84,NNE,32,11.5,11.5,93,0.02,FEW,,0.09,100.0,WeatherDisplay:10.37,2013-08-07 13:51:00,
2013-08-07 15:56:00,60.8,58.8,29.85,ENE,57,5.8,5.8,93,0.02,FEW,,0.09,58.0,WeatherDisplay:10.37,2013-08-07 13:56:00,
2013-08-07 16:01:00,60.7,58.7,29.85,NE,51,6.9,6.9,93,0.02,-RA,,0.09,56.0,WeatherDisplay:10.37,2013-08-07 14:01:00,
2013-08-07 16:06:00,60.8,58.8,29.84,NNE,22,6.9,6.9,93,0.02,-RA,,0.09,76.0,WeatherDisplay:10.37,2013-08-07 14:06:00,
2013-08-07 16:11:00,60.8,58.8,29.84,NE,48,6.9,6.9,93,0.02,-RA,,0.09,100.0,WeatherDisplay:10.37,2013-08-07 14:11:00,
2013-08-07 16:16:00,61.0,59.3,29.84,NE,53,4.6,4.6,94,0.02,-RA,,0.09,111.0,WeatherDisplay:10.37,2013-08-07 14:16:00,
2013-08-07 16:22:00,61.2,59.5,29.84,North,360,5.8,5.8,94,0.02,-RA,,0.09,125.0,WeatherDisplay:10.37,2013-08-07 14:22:00,
2013-08-07 16:27:00,61.3,59.6,29.84,East,79,4.6,4.6,94,0.01,-RA,,0.09,139.0,WeatherDisplay:10.37,2013-08-07 14:27:00,
2013-08-07 16:32:00,61.4,59.7,29.84,NNE,25,11.5,11.5,94,0.00,-RA,,0.09,148.0,WeatherDisplay:10.37,2013-08-07 14:32:00,
2013-08-07 16:37:00,61.4,59.7,29.84,ENE,62,6.9,6.9,94,0.00,-RA,,0.10,88.0,WeatherDisplay:10.37,2013-08-07 14:37:00,
2013-08-07 16:42:00,61.4,59.7,29.85,NE,34,5.8,5.8,94,0.01,-RA,,0.10,69.0,WeatherDisplay:10.37,2013-08-07 14:42:00,
2013-08-07 16:47:00,61.3,59.6,29.85,NE,42,5.8,5.8,94,0.01,-RA,,0.11,90.0,WeatherDisplay:10.37,2013-08-07 14:47:00,
2013-08-07 16:53:00,61.3,59.3,29.85,NNE,16,4.6,4.6,93,0.02,-RA,,0.11,95.0,WeatherDisplay:10.37,2013-08-07 14:53:00,
2013-08-07 16:58:00,61.4,59.7,29.85,NE,51,3.5,3.5,94,0.02,-RA,,0.11,98.0,WeatherDisplay:10.37,2013-08-07 14:58:00,
2013-08-07 17:03:00,61.5,59.8,29.85,North,5,3.5,3.5,94,0.02,-RA,,0.11,114.0,WeatherDisplay:10.37,2013-08-07 15:03:00,
2013-08-07 17:08:00,61.5,59.8,29.86,NE,46,3.5,3.5,94,0.02,-RA,,0.11,114.0,WeatherDisplay:10.37,2013-08-07 15:08:00,
2013-08-07 17:14:00,61.4,59.7,29.86,NE,36,2.3,2.3,94,0.02,-RA,,0.11,95.0,WeatherDisplay:10.37,2013-08-07 15:14:00,
2013-08-07 17:19:00,61.3,59.3,29.86,NNE,22,5.8,5.8,93,0.02,-RA,,0.11,76.0,WeatherDisplay:10.37,2013-08-07 15:19:00,
2013-08-07 17:24:00,61.3,59.3,29.86,North,350,7.0,7.0,93,0.02,-RA,,0.11,67.0,WeatherDisplay:10.37,2013-08-07 15:24:00,
2013-08-07 17:29:00,61.2,59.2,29.87,NE,38,6.0,6.0,93,0.02,-RA,,0.11,72.0,WeatherDisplay:10.37,2013-08-07 15:29:00,
2013-08-07 17:34:00,61.2,59.2,29.86,NNE,17,10.4,10.4,93,0.02,-RA,,0.11,72.0,WeatherDisplay:10.37,2013-08-07 15:34:00,
2013-08-07 17:39:00,61.1,59.1,29.86,NNE,21,6.9,6.9,93,0.01,-RA,,0.11,74.0,WeatherDisplay:10.37,2013-08-07 15:39:00,
2013-08-07 17:45:00,61.2,59.2,29.86,NNW,334,5.8,5.8,93,0.01,-RA,,0.11,70.0,WeatherDisplay:10.37,2013-08-07 15:45:00,
2013-08-07 17:50:00,61.3,59.3,29.86,NE,39,7.0,7.0,93,0.00,-RA,,0.11,76.0,WeatherDisplay:10.37,2013-08-07 15:50:00,
2013-08-07 17:55:00,61.4,59.4,29.86,East,84,4.6,4.6,93,0.00,-RA,,0.11,76.0,WeatherDisplay:10.37,2013-08-07 15:55:00,
2013-08-07 18:00:00,61.4,59.4,29.86,NE,55,6.9,6.9,93,0.00,-RA,,0.11,83.0,WeatherDisplay:10.37,2013-08-07 16:00:00,
2013-08-07 18:06:00,61.5,59.5,29.86,North,9,5.8,5.8,93,0.00,BKN,,0.11,81.0,WeatherDisplay:10.37,2013-08-07 16:06:00,
2013-08-07 18:11:00,61.4,59.4,29.86,NNE,16,4.6,4.6,93,0.00,BKN,,0.11,63.0,WeatherDisplay:10.37,2013-08-07 16:11:00,
2013-08-07 18:16:00,61.5,59.5,29.86,NE,45,3.5,3.5,93,0.00,BKN,,0.11,62.0,WeatherDisplay:10.37,2013-08-07 16:16:00,
2013-08-07 18:21:00,61.6,59.6,29.86,ENE,58,6.9,6.9,93,0.00,BKN,,0.11,63.0,WeatherDisplay:10.37,2013-08-07 16:21:00,
2013-08-07 18:26:00,61.7,59.7,29.85,ENE,62,11.5,11.5,93,0.00,BKN,,0.11,63.0,WeatherDisplay:10.37,2013-08-07 16:26:00,
2013-08-07 18:31:00,61.8,59.8,29.85,NNE,27,8.1,8.1,93,0.00,BKN,,0.11,65.0,WeatherDisplay:10.37,2013-08-07 16:31:00,
2013-08-07 18:36:00,61.9,59.9,29.85,NE,43,8.1,8.1,93,0.00,BKN,,0.11,54.0,WeatherDisplay:10.37,2013-08-07 16:36:00,
2013-08-07 18:41:00,61.9,59.9,29.85,NE,41,6.9,6.9,93,0.00,BKN,,0.11,49.0,WeatherDisplay:10.37,2013-08-07 16:41:00,
2013-08-07 18:47:00,61.9,59.9,29.85,North,360,8.1,8.1,93,0.00,BKN,,0.11,53.0,WeatherDisplay:10.37,2013-08-07 16:47:00,
2013-08-07 18:52:00,61.8,59.8,29.85,NE,36,9.2,9.2,93,0.00,BKN,,0.11,42.0,WeatherDisplay:10.37,2013-08-07 16:52:00,
2013-08-07 18:57:00,61.8,59.8,29.85,NE,51,5.8,5.8,93,0.00,BKN,,0.11,33.0,WeatherDisplay:10.37,2013-08-07 16:57:00,
2013-08-07 19:02:00,61.8,59.8,29.85,NE,38,3.0,3.0,93,0.00,-DZ,,0.11,32.0,WeatherDisplay:10.37,2013-08-07 17:02:00,
2013-08-07 19:07:00,61.8,59.8,29.85,NE,56,8.1,8.1,93,0.00,-DZ,,0.11,30.0,WeatherDisplay:10.37,2013-08-07 17:07:00,
2013-08-07 19:12:00,61.7,59.7,29.85,ENE,77,6.9,6.9,93,0.00,-DZ,,0.11,28.0,WeatherDisplay:10.37,2013-08-07 17:12:00,
2013-08-07 19:18:00,61.6,59.6,29.86,NNE,22,8.1,8.1,93,0.00,-DZ,,0.11,28.0,WeatherDisplay:10.37,2013-08-07 17:18:00,
2013-08-07 19:23:00,61.5,59.2,29.86,NE,51,12.7,12.7,92,0.00,-DZ,,0.11,30.0,WeatherDisplay:10.37,2013-08-07 17:23:00,
2013-08-07 19:28:00,61.5,59.2,29.86,NNE,12,3.5,3.5,92,0.00,-DZ,,0.11,30.0,WeatherDisplay:10.37,2013-08-07 17:28:00,
2013-08-07 19:33:00,61.5,59.2,29.86,NNE,26,9.2,9.2,92,0.00,-DZ,,0.11,25.0,WeatherDisplay:10.37,2013-08-07 17:33:00,
2013-08-07 19:39:00,61.5,59.2,29.86,NNE,29,7.0,7.0,92,0.00,-DZ,,0.11,19.0,WeatherDisplay:10.37,2013-08-07 17:39:00,
2013-08-07 19:44:00,61.4,59.1,29.86,NE,47,8.1,8.1,92,0.00,-DZ,,0.11,18.0,WeatherDisplay:10.37,2013-08-07 17:44:00,
2013-08-07 19:49:00,61.4,59.1,29.86,NNW,332,9.2,9.2,92,0.00,-DZ,,0.11,14.0,WeatherDisplay:10.37,2013-08-07 17:49:00,
2013-08-07 19:54:00,61.3,59.0,29.86,NE,41,3.5,3.5,92,0.00,-DZ,,0.11,14.0,WeatherDisplay:10.37,2013-08-07 17:54:00,
2013-08-07 19:59:00,61.3,59.0,29.86,NNE,17,6.9,6.9,92,0.00,-DZ,,0.11,14.0,WeatherDisplay:10.37,2013-08-07 17:59:00,
2013-08-07 20:05:00,61.2,58.9,29.86,NE,40,6.9,6.9,92,0.00,BKN,,0.11,14.0,WeatherDisplay:10.37,2013-08-07 18:05:00,
2013-08-07 20:10:00,61.2,58.9,29.86,NE,43,3.5,3.5,92,0.00,BKN,,0.11,12.0,WeatherDisplay:10.37,2013-08-07 18:10:00,
2013-08-07 20:15:00,61.2,58.9,29.86,NNE,26,8.1,8.1,92,0.00,BKN,,0.11,11.0,WeatherDisplay:10.37,2013-08-07 18:15:00,
2013-08-07 20:20:00,61.0,58.7,29.87,ENE,67,5.8,5.8,92,0.00,BKN,,0.11,9.0,WeatherDisplay:10.37,2013-08-07 18:20:00,
2013-08-07 20:25:00,60.9,58.6,29.87,NNE,15,6.9,6.9,92,0.00,BKN,,0.11,9.0,WeatherDisplay:10.37,2013-08-07 18:25:00,
2013-08-07 20:31:00,60.8,58.5,29.87,NE,35,2.3,2.3,92,0.00,BKN,,0.11,9.0,WeatherDisplay:10.37,2013-08-07 18:31:00,
2013-08-07 20:36:00,60.7,58.1,29.87,NE,36,5.8,5.8,91,0.00,BKN,,0.11,7.0,WeatherDisplay:10.37,2013-08-07 18:36:00,
2013-08-07 20:41:00,60.7,58.4,29.87,NE,52,2.3,2.3,92,0.00,BKN,,0.11,5.0,WeatherDisplay:10.37,2013-08-07 18:41:00,
2013-08-07 20:46:00,60.6,58.3,29.88,NE,54,6.9,6.9,92,0.00,BKN,,0.11,5.0,WeatherDisplay:10.37,2013-08-07 18:46:00,
2013-08-07 20:51:00,60.5,58.2,29.88,North,5,6.9,6.9,92,0.00,BKN,,0.11,5.0,WeatherDisplay:10.37,2013-08-07 18:51:00,
2013-08-07 20:56:00,60.5,58.2,29.88,NNE,28,3.5,3.5,92,0.00,BKN,,0.11,5.0,WeatherDisplay:10.37,2013-08-07 18:56:00,
2013-08-07 21:01:00,60.5,58.2,29.89,NNE,28,3.5,3.5,92,0.00,FEW,,0.11,5.0,WeatherDisplay:10.37,2013-08-07 19:01:00,
2013-08-07 21:07:00,60.5,58.2,29.89,NNE,28,1.2,0.0,92,0.00,FEW,,0.11,5.0,WeatherDisplay:10.37,2013-08-07 19:07:00,
2013-08-07 21:12:00,60.4,58.1,29.89,NNE,28,0.0,0.0,92,0.00,FEW,,0.11,0.0,WeatherDisplay:10.37,2013-08-07 19:12:00,
2013-08-07 21:17:00,60.4,58.1,29.89,NNE,28,0.0,0.0,92,0.00,FEW,,0.11,0.0,WeatherDisplay:10.37,2013-08-07 19:17:00,
2013-08-07 21:22:00,60.4,58.1,29.89,NNE,28,0.0,0.0,92,0.00,FEW,,0.11,0.0,WeatherDisplay:10.37,2013-08-07 19:22:00,
2013-08-07 21:27:00,60.3,58.0,29.89,NNE,28,0.0,0.0,92,0.00,FEW,,0.11,0.0,WeatherDisplay:10.37,2013-08-07 19:27:00,
2013-08-07 21:32:00,60.3,58.0,29.89,NW,320,8.1,8.1,92,0.00,FEW,,0.11,0.0,WeatherDisplay:10.37,2013-08-07 19:32:00,
2013-08-07 21:37:00,60.0,57.7,29.89,NNE,16,8.1,8.1,92,0.00,FEW,,0.11,0.0,WeatherDisplay:10.37,2013-08-07 19:37:00,
2013-08-07 21:42:00,59.7,57.1,29.89,NNE,17,9.2,9.2,91,0.00,FEW,,0.11,0.0,WeatherDisplay:10.37,2013-08-07 19:42:00,
2013-08-07 21:48:00,59.5,56.9,29.89,North,355,5.8,5.8,91,0.00,FEW,,0.11,0.0,WeatherDisplay:10.37,2013-08-07 19:48:00,
2013-08-07 21:53:00,59.4,56.5,29.89,NE,43,8.1,8.1,90,0.00,FEW,,0.11,0.0,WeatherDisplay:10.37,2013-08-07 19:53:00,
2013-08-07 21:58:00,59.4,56.5,29.90,ENE,60,11.5,11.5,90,0.00,FEW,,0.11,0.0,WeatherDisplay:10.37,2013-08-07 19:58:00,
2013-08-07 22:03:00,59.3,56.4,29.90,NNE,16,4.6,4.6,90,0.00,CLR,,0.11,0.0,WeatherDisplay:10.37,2013-08-07 20:03:00,
2013-08-07 22:08:00,59.4,56.2,29.90,NNE,17,9.2,9.2,89,0.00,CLR,,0.11,0.0,WeatherDisplay:10.37,2013-08-07 20:08:00,
2013-08-07 22:13:00,59.4,56.2,29.90,NNE,23,6.9,6.9,89,0.00,CLR,,0.11,0.0,WeatherDisplay:10.37,2013-08-07 20:13:00,
2013-08-07 22:19:00,59.5,56.3,29.90,North,5,9.2,9.2,89,0.00,CLR,,0.11,0.0,WeatherDisplay:10.37,2013-08-07 20:19:00,
2013-08-07 22:24:00,59.5,56.3,29.90,NNE,31,5.8,5.8,89,0.00,CLR,,0.11,0.0,WeatherDisplay:10.37,2013-08-07 20:24:00,
2013-08-07 22:29:00,59.5,56.3,29.90,NE,42,11.5,11.5,89,0.00,CLR,,0.11,0.0,WeatherDisplay:10.37,2013-08-07 20:29:00,
2013-08-07 22:34:00,59.4,55.8,29.90,NNE,15,11.5,11.5,88,0.00,CLR,,0.11,0.0,WeatherDisplay:10.37,2013-08-07 20:34:00,
2013-08-07 22:39:00,59.4,55.8,29.90,NE,34,11.5,11.5,88,0.00,CLR,,0.11,0.0,WeatherDisplay:10.37,2013-08-07 20:39:00,
2013-08-07 22:45:00,59.5,55.9,29.91,NNE,17,7.0,7.0,88,0.00,CLR,,0.11,0.0,WeatherDisplay:10.37,2013-08-07 20:45:00,
2013-08-07 22:50:00,59.6,55.7,29.90,NE,38,9.2,9.2,87,0.00,CLR,,0.11,0.0,WeatherDisplay:10.37,2013-08-07 20:50:00,
2013-08-07 22:55:00,59.6,55.7,29.90,NNE,18,4.6,4.6,87,0.00,CLR,,0.11,0.0,WeatherDisplay:10.37,2013-08-07 20:55:00,
2013-08-07 23:00:00,59.7,55.8,29.90,North,5,8.0,8.0,87,0.00,CLR,,0.11,0.0,WeatherDisplay:10.37,2013-08-07 21:00:00,
2013-08-07 23:05:00,59.7,55.8,29.91,NE,36,3.5,3.5,87,0.00,CLR,,0.11,0.0,WeatherDisplay:10.37,2013-08-07 21:05:00,
2013-08-07 23:10:00,59.7,56.1,29.91,NNW,331,6.9,6.9,88,0.00,CLR,,0.11,0.0,WeatherDisplay:10.37,2013-08-07 21:10:00,
2013-08-07 23:16:00,59.8,56.2,29.91,NNE,22,3.5,3.5,88,0.00,CLR,,0.11,0.0,WeatherDisplay:10.37,2013-08-07 21:16:00,
2013-08-07 23:21:00,59.8,56.2,29.91,NE,35,3.5,3.5,88,0.00,CLR,,0.11,0.0,WeatherDisplay:10.37,2013-08-07 21:21:00,
2013-08-07 23:26:00,59.8,56.2,29.91,North,351,6.0,6.0,88,0.00,CLR,,0.11,0.0,WeatherDisplay:10.37,2013-08-07 21:26:00,
2013-08-07 23:31:00,59.9,56.3,29.92,North,355,4.6,4.6,88,0.00,CLR,,0.11,0.0,WeatherDisplay:10.37,2013-08-07 21:31:00,
2013-08-07 23:36:00,59.9,56.6,29.91,North,360,3.5,3.5,89,0.00,CLR,,0.11,0.0,WeatherDisplay:10.37,2013-08-07 21:36:00,
2013-08-07 23:41:00,59.9,56.6,29.91,NNE,13,6.9,6.9,89,0.00,CLR,,0.11,0.0,WeatherDisplay:10.37,2013-08-07 21:41:00,
2013-08-07 23:46:00,60.0,56.4,29.91,NNE,25,3.5,3.5,88,0.00,CLR,,0.11,0.0,WeatherDisplay:10.37,2013-08-07 21:46:00,
2013-08-07 23:52:00,60.1,56.5,29.91,NNW,333,11.5,11.5,88,0.00,CLR,,0.11,0.0,WeatherDisplay:10.37,2013-08-07 21:52:00,
2013-08-07 23:57:00,60.3,56.7,29.92,North,355,5.8,5.8,88,0.00,CLR,,0.11,0.0,WeatherDisplay:10.37,2013-08-07 21:57:00,